Regional Weather Roundup
Issued by NWS Charleston, SC

Current Version | Previous Version | Text Only | Print | Product List | Glossary Off
Versions: 1 2 3 4 5 6 7 8 9 10 11 12 13 14 15 16 17 18 19 20 21 22 23 24 25 26 27 28 29 30 31 32 33 34 35 36 37 38 39 40 41 42 43 44 45 46 47 48 49 50

000
ASUS42 KCHS 272010
RWRCHS
REGIONAL WEATHER ROUNDUP
NATIONAL WEATHER SERVICE CHARLESTON SC
400 PM EDT WED AUG 27 2014

NOTE: "FAIR" INDICATES FEW OR NO CLOUDS BELOW 12,000 FEET WITH NO
SIGNIFICANT WEATHER AND/OR OBSTRUCTIONS TO VISIBILITY.

NOT ALL STATIONS ARE QUALITY CONTROLLED BY THE NATIONAL
WEATHER SERVICE. USE DATA WITH CAUTION...ESPECIALLY
DEWPOINT OBSERVATIONS.

SCZ027-030-031-034>040-042>050-272100-
...SOUTH CAROLINA...

CITY           SKY/WX    TMP DP  RH WIND       PRES   REMARKS
N CHARLESTON   MOSUNNY   89  61  38 NW8       29.97F
WATERFRONT PRK   N/A     84 N/A N/A N9          N/A
FORT JOHNSON   NOT AVBL
MOUNT PLEASANT FAIR      88  64  45 CALM      29.97F
JOHNS ISLAND   CLEAR     86  64  48 CALM      29.97F
PINOPOLIS        N/A     86  63  45 W3        29.91F
MONCKS CORNER    N/A     86  64  48 NW3       29.98F HAZE
SUMMERVILLE    FAIR      88  61  40 CALM      29.99F
BEAUFORT MCAS  MOSUNNY   87  62  43 VRB3      29.98F
BEAUFORT ARPT  FAIR      86  64  48 CALM      29.98F
HILTON HEAD IS SUNNY     88  63  42 N6        30.00F
GEORGETOWN     NOT AVBL
WALTERBORO     CLEAR     90  50  25 CALM      29.99F
ORANGEBURG     SUNNY     89  55  31 VRB3      29.98F
BARNWELL       FAIR      91  54  27 NE9       29.99F
AIKEN          FAIR      91  55  29 E5G16     30.03F
MANNING        FAIR      90  57  33 N6        29.98F
KINGSTREE      NOT AVBL
COLUMBIA       MOSUNNY   93  52  24 CALM      29.97F HX  90
SUMTER         SUNNY     90  54  29 NW8       29.97F
FLORENCE       SUNNY     90  54  29 N8        29.97F
MYRTLE BEACH   MOSUNNY   88  64  45 N12       29.95F
N MYRTLE BEACH NOT AVBL

$$

GAZ063-065-086>088-099>101-113>116-118-119-134-136>141-150-272100-
...GEORGIA...

CITY           SKY/WX    TMP DP  RH WIND       PRES   REMARKS
SAVANNAH ARPT  SUNNY     90  54  29 N7        29.99F
HUNTER AAF     SUNNY     87  59  38 VRB5      29.97F
FORT STEWART   SUNNY     89  58  34 VRB6      29.98F
STATESBORO     NOT AVBL
SYLVANIA       CLEAR     89  63  41 N8        30.00F HX  90
CLAXTON        NOT AVBL
THOMSON        SUNNY     92  62  37 NW8       30.06F HX  92
AUGUSTA-BUSH   SUNNY     92  52  25 N6        29.98F
AUGUSTA-DANIEL SUNNY     93  49  22 VRB7      30.01F HX  90
SWAINSBORO     FAIR      91  59  33 NE5       30.01F HX  90
VIDALIA          N/A     91  59  33 E6        29.99F HX  90
ALMA           SUNNY     90  57  32 VRB7      29.99F
WAYCROSS       SUNNY     92  61  35 N6        29.98F HX  92
JESUP            N/A     91  61  35 N7        29.98F HX  91
BRUNSWICK      SUNNY     86  63  45 E9        29.99F
SAINT SIMONS   SUNNY     83  64  52 E13       29.99F

$$

SCZ027-028-034-036>038-045-046-048>050-GAZ119-141-272100-
...LAKE AND SUPPLEMENTAL COASTAL OBSERVATIONS...

STATION/POSITION TIME  TEMP    WIND        PRES    WAVE   SWELL
                       AIR SEA DIR/SP/G            HT/PER HT/PER/DIR
                 (UTC) (F)     (DEG/KT/KT) (MB)    (FT/S) (FT/S/D)
UPR LAKE MARION  NOT AVBL
WINYAH BAY       1900   84     320/  7     1015.0S
LAKE MURRAY      1900   89      10/  2/  6 1014.9F
ACE BASIN NERRS  1900   89     340/  2     1016.0S
FORT PULASKI     2000   82      70/  6/  8 1015.8F
SAPELO ISLAND    NOT AVBL

$$

ANZ835-935-AMZ111-154-330-350-352-354-374-450-454-472-272100-
...C-MAN AND BUOY OBSERVATIONS...

STATION/POSITION TIME  TEMP    WIND        PRES    WAVE   SWELL
                       AIR SEA DIR/SP/G            HT/PER HT/PER/DIR
                 (UTC) (F)     (DEG/KT/KT) (MB)    (FT/S) (FT/S/D)
FOLLY BEACH CMAN 1900   83      90/  3/  4 1015.8F
BUOY 41004       2000   80 82  360/ 12/ 16 1014.2F   6/ 9   5/ 9
BUOY 41008       2000   79 84   20/  8/ 10 1015.8F   4/ 9   3/100/ 9
5E ST. MARYS GA  2000      83                N/A     4/ 9   2/110/11
FRYING PAN BUOY  NOT AVBL
BUOY 41025       2000   77     360/ 23/ 27 1011.5F  11/12   8/130/12
CAPE LOOKOUT NC  1900   83      20/ 16/ 21 1013.2F
BUOY 41002       1938   78 81  340/ 19/ 25 1009.2R  11/10   5/ 70/10
BUOY 41010       2000   83 85  340/ 10/ 12 1013.9F  10/10  10/ 60/10
BUOY 41012       NOT AVBL
ST AUGUSTINE FL  2000   80      20/ 15/ 17 1016.0F
CAPERS NEARSHORE 1900   84      70/  2/  6   N/A
FRIPP NEARSHORE  NOT AVBL


$$


USA.gov is the U.S. government's official web portal to all federal, state and local government web resources and services.